ENEV

Harstad/Narvik

Airport
ICAO code
ENEV
Summary
ICAO Region
EUR
ICAO Territory
Location

Evenes, Norway,

Serving
Harstad/Narvik
Coordinates
68° 29' 18" N , 16° 40' 42" E
KCC
Airport WX
Low Level Turbulence
Metar
ENEV 142250Z 35005KT 9999 BKN051 01/M02 Q1003 RMK WIND 1400FT 01010KT

Description

International airport at Evenes which serves the towns of Harstad and Narvik, northern Norway.

Climatology

Subpolar Oceanic climate (Köppen climate classification Cfc) - uniform precipitation distribution, temperatures are moderated by the proximity of the ocean and warm currents - cool summers and comparatively mild winters.

Runways

Designator Length Width Surface Rops
17/35 2815 45 ASP Yes/Yes

Airport map

Aerial View

SKYbrary Partners:

Safety knowledge contributed by: